Location: G�kdere
(37.0328°N, 30.9000°E)
Time: 02:09:44
(UTC+00:00)

USA 234 - Pass Details

Date: 03 March 2021
Orbit: 1102 x 1105 km, 123.0° (Epoch: 18 April)

Event Time Altitude Azimuth Distance (km) Brightness Sun altitude
Exits shadow 17:52:37 13° 35° (NE) 2,734 5.1 -24.7°
Maximum altitude 17:58:18 53° 322° (NW) 1,328 3.9 -25.8°
Drops below altitude 10° 18:04:36 10° 248° (WSW) 2,956 6.2 -27.0°
Sets 18:07:08 0° 243° (WSW) 3,911 6.9 -27.5°
